Cambridge, MN

5:32 AM CDT on March 27, 2017 (GMT -0500)
Cambridge Municipal

Weather History for KCBG - August, 2013

Change the Weather History Date:

Tuesday, August 6, 2013

  Actual Average Record
Temperature  
Mean Temperature 66 °F -  
Max Temperature 78 °F 79 °F 96 °F (2001)
Min Temperature 53 °F 56 °F 40 °F (1977)
Growing Degree Days 16 (Base 50)    
Moisture  
Dew Point 60 °F    
Average Humidity 86    
Maximum Humidity 94    
Minimum Humidity 73    
Precipitation  
Precipitation 0.00 in - - ()
Sea Level Pressure  
Sea Level Pressure 29.77 in    
Wind  
Wind Speed 3 mph (SSW)    
Max Wind Speed 14 mph    
Max Gust Speed 21 mph    
Visibility 9 miles    
Events Rain    
Averages and records for this station are not official NWS values.
T = Trace of Precipitation, MM = Missing Value Source: NWS Daily Summary

Daily Weather History Graph

Daily Weather History Graph

Search for Another Location

Airport or City:

Trip Planner

Search our weather history database for the weather conditions in past years. The results will help you decide how hot, cold, wet, or windy it might be!

Date:

Astronomy

Aug. 06, 2013 Rise Set
Actual Time 6:02 AM CDT 8:33 PM CDT
Civil Twilight 5:29 AM CDT 9:07 PM CDT
Nautical Twilight 4:47 AM CDT 9:49 PM CDT
Astronomical Twilight 3:59 AM CDT 10:36 PM CDT
Moon 5:57 AM CDT (8/6) 8:04 PM CDT (8/6)
Length of Visible Light 15h 37m
Length of Day
14h 30m
Waning Crescent, 0% of the Moon is Illuminated
Aug 6
Waning Crescent
Aug 6
New
Aug 14
First Quarter
Aug 20
Full
Aug 28
Last Quarter

Hourly Weather History & Observations

Time (CDT) Temp. Dew Point Humidity Pressure Visibility Wind Dir Wind Speed Gust Speed Precip Events Conditions
12:15 AM 62.6 °F 57.2 °F 82% 29.83 in 10.0 mi WNW 5.8 mph - N/A   Clear
12:34 AM 60.8 °F 57.2 °F 88% 29.84 in 10.0 mi WNW 5.8 mph - N/A   Clear
12:55 AM 60.8 °F 55.4 °F 82% 29.82 in 10.0 mi Calm Calm - N/A   Clear
1:14 AM 60.8 °F 55.4 °F 82% 29.81 in 10.0 mi Calm Calm - N/A   Clear
1:35 AM 57.2 °F 55.4 °F 94% 29.82 in 10.0 mi Calm Calm - N/A   Clear
1:55 AM 57.2 °F 53.6 °F 88% 29.83 in 10.0 mi West 3.5 mph - N/A   Clear
2:14 AM 57.2 °F 53.6 °F 88% 29.82 in 10.0 mi Calm Calm - N/A   Clear
2:35 AM 57.2 °F 55.4 °F 94% 29.81 in 10.0 mi Calm Calm - N/A   Clear
2:54 AM 55.4 °F 53.6 °F 94% 29.79 in 10.0 mi Calm Calm - N/A   Clear
3:14 AM 55.4 °F 53.6 °F 94% 29.80 in 10.0 mi Calm Calm - N/A   Clear
3:35 AM 55.4 °F 53.6 °F 94% 29.82 in 10.0 mi Calm Calm - N/A   Clear
3:54 AM 55.4 °F 53.6 °F 94% 29.81 in 10.0 mi SW 3.5 mph - N/A   Clear
4:15 AM 55.4 °F 53.6 °F 94% 29.81 in 10.0 mi Calm Calm - N/A   Clear
4:34 AM 55.4 °F 53.6 °F 94% 29.80 in 10.0 mi Calm Calm - N/A   Clear
4:55 AM 55.4 °F 53.6 °F 94% 29.80 in 10.0 mi Calm Calm - N/A   Clear
5:14 AM 55.4 °F 51.8 °F 88% 29.79 in 10.0 mi Calm Calm - N/A   Clear
5:35 AM 53.6 °F 51.8 °F 94% 29.80 in 10.0 mi Calm Calm - N/A   Clear
5:55 AM 53.6 °F 51.8 °F 94% 29.81 in 10.0 mi Calm Calm - N/A   Clear
6:14 AM 53.6 °F 51.8 °F 94% 29.81 in 10.0 mi Calm Calm - N/A   Clear
6:35 AM 53.6 °F 51.8 °F 94% 29.80 in 10.0 mi Calm Calm - N/A   Clear
6:54 AM 53.6 °F 51.8 °F 94% 29.81 in 10.0 mi Calm Calm - N/A   Clear
7:14 AM 55.4 °F 53.6 °F 94% 29.81 in 10.0 mi Calm Calm - N/A   Clear
7:35 AM 57.2 °F 53.6 °F 88% 29.81 in 10.0 mi Calm Calm - N/A   Clear
7:54 AM 57.2 °F 55.4 °F 94% 29.81 in 10.0 mi Calm Calm - N/A   Clear
8:15 AM 57.2 °F 55.4 °F 94% 29.81 in 10.0 mi Calm Calm - N/A   Clear
8:34 AM 59.0 °F 55.4 °F 88% 29.81 in 10.0 mi Calm Calm - N/A   Clear
8:54 AM 60.8 °F 57.2 °F 88% 29.80 in 10.0 mi South 3.5 mph - N/A   Clear
9:15 AM 60.8 °F 57.2 °F 88% 29.81 in 10.0 mi Calm Calm - N/A   Clear
9:34 AM 62.6 °F 57.2 °F 82% 29.81 in 10.0 mi SW 3.5 mph - N/A   Clear
9:54 AM 64.4 °F 59.0 °F 83% 29.81 in 10.0 mi South 4.6 mph - N/A   Clear
10:15 AM 64.4 °F 59.0 °F 83% 29.81 in 10.0 mi SSE 3.5 mph - N/A   Clear
10:34 AM 66.2 °F 60.8 °F 83% 29.79 in 10.0 mi South 4.6 mph - N/A   Clear
10:55 AM 68.0 °F 60.8 °F 78% 29.79 in 10.0 mi South 3.5 mph - N/A   Clear
11:14 AM 68.0 °F 60.8 °F 78% 29.79 in 10.0 mi SE 3.5 mph - N/A   Scattered Clouds
11:34 AM 68.0 °F 60.8 °F 78% 29.84 in 10.0 mi WNW 10.4 mph - N/A   Mostly Cloudy
11:42 AM 66.2 °F 60.8 °F 83% 29.81 in 1.2 mi North 3.5 mph 18.4 mph N/A Rain Heavy Rain
2:01 PM 71.6 °F 64.4 °F 78% 29.76 in 10.0 mi ESE 5.8 mph - N/A   Clear
2:35 PM 71.6 °F 64.4 °F 78% 29.74 in 10.0 mi ESE 9.2 mph - N/A   Clear
2:41 PM 73.4 °F 66.2 °F 78% 29.74 in 10.0 mi ESE 6.9 mph - N/A   Clear
3:01 PM 75.2 °F 66.2 °F 73% 29.73 in 10.0 mi SSE 5.8 mph - N/A   Clear
3:21 PM 75.2 °F 66.2 °F 73% 29.73 in 10.0 mi SSE 8.1 mph - N/A   Clear
3:41 PM 75.2 °F 66.2 °F 73% 29.72 in 10.0 mi ESE 4.6 mph - N/A   Scattered Clouds
4:01 PM 77.0 °F 69.8 °F 78% 29.72 in 10.0 mi ESE 4.6 mph - N/A   Scattered Clouds
4:21 PM 77.0 °F 69.8 °F 78% 29.72 in 10.0 mi SSE 2.3 mph - N/A   Scattered Clouds
4:41 PM 78.8 °F 71.6 °F 78% 29.70 in 10.0 mi SE 3.5 mph - N/A   Scattered Clouds
5:01 PM 78.8 °F 71.6 °F 78% 29.70 in 10.0 mi SSW 6.9 mph - N/A   Clear
5:21 PM 78.8 °F 69.8 °F 74% 29.70 in 10.0 mi SSW 6.9 mph - N/A   Scattered Clouds
5:51 PM 77.0 °F 69.8 °F 78% 29.69 in 10.0 mi SSW 3.5 mph - N/A   Scattered Clouds
6:16 PM 77.0 °F 69.8 °F 78% 29.68 in 10.0 mi SSW 4.6 mph - N/A   Clear
6:31 PM 78.8 °F 71.6 °F 78% 29.67 in 10.0 mi SSW 8.1 mph - N/A   Clear
6:48 PM 78.8 °F 69.8 °F 74% 29.68 in 10.0 mi SW 3.5 mph - N/A   Clear
7:15 PM 75.2 °F 69.8 °F 83% 29.68 in 10.0 mi Calm Calm - N/A   Scattered Clouds
7:36 PM 73.4 °F 68.0 °F 83% 29.70 in 10.0 mi NNE 9.2 mph - N/A   Scattered Clouds
7:41 PM 73.4 °F 66.2 °F 78% 29.71 in 10.0 mi North 8.1 mph - N/A   Mostly Cloudy
8:16 PM 66.2 °F 62.6 °F 88% 29.72 in 3.0 mi North 13.8 mph 20.7 mph N/A   Overcast
8:21 PM 64.4 °F 60.8 °F 88% 29.76 in 2.0 mi NW 9.2 mph 20.7 mph N/A   Overcast
8:54 PM 64.4 °F 60.8 °F 88% 29.75 in 10.0 mi South 1.2 mph - N/A   Scattered Clouds
9:10 PM 62.6 °F 60.8 °F 94% 29.68 in 10.0 mi East 5.8 mph - N/A   Scattered Clouds
9:28 PM 62.6 °F 60.8 °F 94% 29.69 in 10.0 mi Calm Calm - N/A   Clear
9:43 PM 62.6 °F 60.8 °F 94% 29.71 in 10.0 mi West 5.8 mph - N/A   Clear
10:13 PM 62.6 °F 60.8 °F 94% 29.72 in 10.0 mi WSW 1.2 mph - N/A   Scattered Clouds
10:28 PM 62.6 °F 60.8 °F 94% 29.74 in 10.0 mi NW 3.5 mph - N/A   Mostly Cloudy
10:44 PM 62.6 °F 60.8 °F 94% 29.75 in 10.0 mi NW 1.2 mph - N/A   Mostly Cloudy
11:01 PM 62.6 °F 60.8 °F 94% 29.75 in 10.0 mi Calm Calm - N/A   Scattered Clouds
11:21 PM 62.6 °F 60.8 °F 94% 29.76 in 3.0 mi Calm Calm - N/A   Clear
11:41 PM 60.8 °F 59.0 °F 94% 29.77 in 1.0 mi West 1.2 mph - N/A   Clear